TimeCDT,TemperatureF,Dew PointF,Humidity,Sea Level PressureIn,VisibilityMPH,Wind Direction,Wind SpeedMPH,Gust SpeedMPH,PrecipitationIn,Events,Conditions,WindDirDegrees,DateUTC
12:52 AM,55.0,48.9,80,29.73,10.0,WNW,13.8,-,N/A,,Overcast,300,2013-05-22 05:52:00
1:52 AM,53.1,48.9,86,29.73,10.0,WNW,11.5,-,0.00,,Light Drizzle,290,2013-05-22 06:52:00
2:15 AM,53.6,48.2,82,29.74,10.0,WNW,9.2,-,0.00,,Overcast,290,2013-05-22 07:15:00
2:52 AM,53.1,48.9,86,29.74,10.0,West,8.1,-,0.00,,Overcast,260,2013-05-22 07:52:00
3:52 AM,52.0,48.9,89,29.74,3.0,West,10.4,-,0.00,,Light Drizzle,270,2013-05-22 08:52:00
4:52 AM,53.1,48.9,86,29.72,5.0,WNW,11.5,21.9,0.00,,Light Drizzle,300,2013-05-22 09:52:00
5:41 AM,51.8,48.2,88,29.72,4.0,WNW,16.1,-,0.00,,Light Drizzle,290,2013-05-22 10:41:00
5:52 AM,52.0,48.9,89,29.72,5.0,WNW,13.8,-,0.00,,Light Drizzle,290,2013-05-22 10:52:00
6:52 AM,52.0,48.9,89,29.73,9.0,WNW,12.7,21.9,0.00,,Overcast,300,2013-05-22 11:52:00
7:52 AM,53.1,48.9,86,29.74,7.0,NW,15.0,-,N/A,,Overcast,310,2013-05-22 12:52:00
8:52 AM,54.0,48.9,83,29.76,7.0,NW,18.4,25.3,0.00,Rain,Light Rain,310,2013-05-22 13:52:00
8:59 AM,53.6,48.2,82,29.77,10.0,NW,12.7,25.3,0.00,,Overcast,310,2013-05-22 13:59:00
9:17 AM,53.6,48.2,82,29.78,10.0,NW,13.8,-,0.00,,Overcast,320,2013-05-22 14:17:00
9:52 AM,55.0,48.9,80,29.78,7.0,NW,13.8,-,0.00,,Overcast,310,2013-05-22 14:52:00
10:31 AM,55.4,50.0,82,29.80,7.0,NNW,13.8,-,0.00,Rain,Light Rain,330,2013-05-22 15:31:00
10:52 AM,55.9,50.0,80,29.80,7.0,WNW,16.1,-,0.00,,Overcast,300,2013-05-22 15:52:00
11:52 AM,57.0,48.9,74,29.81,10.0,NW,12.7,-,0.00,,Overcast,320,2013-05-22 16:52:00
12:52 PM,59.0,50.0,72,29.82,10.0,NW,10.4,19.6,0.00,Rain,Light Rain,320,2013-05-22 17:52:00
1:14 PM,57.2,48.2,72,29.83,10.0,WNW,12.7,-,0.00,Rain,Light Rain,290,2013-05-22 18:14:00
1:37 PM,59.0,48.2,67,29.84,10.0,WNW,13.8,-,0.00,,Overcast,300,2013-05-22 18:37:00
1:52 PM,57.9,48.9,72,29.83,10.0,West,11.5,-,0.00,,Overcast,280,2013-05-22 18:52:00
2:35 PM,55.4,51.8,88,29.84,4.0,NW,12.7,-,0.01,Rain,Light Rain,310,2013-05-22 19:35:00
2:52 PM,57.0,53.1,87,29.84,4.0,WNW,13.8,-,0.01,Rain,Light Rain,300,2013-05-22 19:52:00
3:28 PM,57.2,51.8,82,29.84,10.0,NNW,13.8,-,0.00,,Overcast,330,2013-05-22 20:28:00
3:52 PM,60.1,52.0,75,29.83,10.0,NW,10.4,-,0.00,,Overcast,320,2013-05-22 20:52:00
4:52 PM,59.0,48.9,69,29.85,10.0,NW,17.3,21.9,N/A,,Overcast,310,2013-05-22 21:52:00
5:17 PM,59.0,48.2,67,29.85,10.0,NW,13.8,-,N/A,,Overcast,320,2013-05-22 22:17:00
5:52 PM,59.0,48.0,67,29.86,10.0,NW,11.5,-,N/A,,Overcast,310,2013-05-22 22:52:00
6:52 PM,59.0,48.0,67,29.88,10.0,NNW,16.1,-,N/A,,Overcast,340,2013-05-22 23:52:00
7:52 PM,57.0,46.9,69,29.90,10.0,NNW,10.4,-,N/A,,Overcast,330,2013-05-23 00:52:00
8:52 PM,57.0,48.0,72,29.92,10.0,NW,9.2,-,N/A,,Overcast,320,2013-05-23 01:52:00
9:52 PM,55.9,48.0,75,29.94,10.0,NW,11.5,-,N/A,,Overcast,320,2013-05-23 02:52:00
10:52 PM,55.9,48.0,75,29.96,10.0,WNW,10.4,-,N/A,,Overcast,300,2013-05-23 03:52:00
11:52 PM,55.9,48.9,77,29.98,10.0,NNW,15.0,-,N/A,,Overcast,330,2013-05-23 04:52:00